Other Public Products
Issued by NWS Grand Forks, ND

Home | Current Version | Previous Version | Graphics & Text | Print | Product List | Glossary On
Versions: 1 2 3 4 5 6 7 8 9 10 11 12 13 14 15 16 17 18 19 20 21 22 23 24 25 26 27 28 29 30 31 32 33 34 35 36 37 38 39 40 41 42 43 44 45 46 47 48 49 50
000
FPUS83 KFGF 252031
OPUFGF
PRAIRIE TO PINES WEATHER ROUNDUP
NATIONAL WEATHER SERVICE EASTERN NORTH DAKOTA/GRAND FORKS ND
300 PM CDT SUN JUN 25 2017

 **SATELLITE DATA USED TO AUGMENT SKY COVER AT AUTOMATED STATIONS**
 *****  WEATHER ACROSS EASTERN NORTH DAKOTA  *****

CITY           SKY/WX    TMP DP  RH WIND       PRES   REMARKS
GRAND FORKS    CLOUDY    65  44  46 N12       30.19F
GRAND FORKS AF FAIR      64  43  45 NW8       30.20F
GRAND CITY NWS NOT AVBL
BUXTON           N/A     68  44  41 W8G20       N/A
DEVILS LAKE    CLOUDY    62  41  46 N14       30.23S
FARGO          PTSUNNY   70  41  34 N16G26    30.18F
WAHPETON ARPT  MOCLDY    63  41  45 N10G20    30.20S
$$

 *****  WEATHER ACROSS CENTRAL AND WESTERN NORTH DAKOTA  *****

CITY           SKY/WX    TMP DP  RH WIND       PRES   REMARKS
JAMESTOWN      PTSUNNY   65  45  48 W14G20    30.20F
BISMARCK       FAIR      66  49  54 W12       30.25F
MINOT          FAIR      70  44  39 N14G20    30.23S
MINOT AFB      PTSUNNY   66  42  41 NE8       30.23S
GARRISON         N/A     64  43  46 VRB6      30.23S
WILLISTON      PTSUNNY   73  45  36 N9        30.26S
DICKINSON      FAIR      72  34  24 N17G24    30.22F
HETTINGER      FAIR      74  35  24 VRB7      30.24F
$$

 *****  OTHER OBSERVATIONS NORTHEAST NORTH DAKOTA  *****

CITY           SKY/WX    TMP DP  RH WIND       PRES   REMARKS
WALHALLA       NOT AVBL
LANGDON        FAIR      63  39  42 N14G20    30.22F
CAVALIER       FAIR      63  39  42 NW14G22   30.21S
GRAFTON        FAIR      63  43  48 N16G25    30.22S
CANDO          NOT AVBL
FORT TOTTEN      N/A     61  47  59 NW3       29.95
ROLLA            N/A     59  37  44 N10G20    30.25S
RUGBY          NOT AVBL
 ***** THE ABOVE OBSERVATIONS ARE NON NWS ARE NOT QUALITY
        CONTROLLED AND MAY MIS-REPORT RAIN FOR SNOW...
$$

 *****  OTHER OBSERVATIONS SOUTHEAST NORTH DAKOTA *****

CITY           SKY/WX    TMP DP  RH WIND       PRES   REMARKS
COOPERSTOWN    FAIR      66  45  45 N15       30.20F
VALLEY CITY    MOCLDY    63  46  55 N17G24    30.22S
OAKES          NOT AVBL
GWINNER        MOCLDY    64  45  48 W15       30.21F
SHEYENNE NWR     N/A     67  44  43 NW10      29.95S
BUFFALO          N/A     65  38  36 N16         N/A
WYNDMERE       NOT AVBL
 ***** THE ABOVE OBSERVATIONS ARE NON NWS ARE NOT QUALITY
       CONTROLLED AND MAY MIS-REPORT RAIN FOR SNOW...
$$

  *****  WEATHER ACROSS NORTHERN MINNESOTA  *****

CITY           SKY/WX    TMP DP  RH WIND       PRES   REMARKS
FLAG ISLAND    FAIR      57  45  62 NW12      30.15S
WARROAD        FAIR      55  48  76 N12G18    30.18S
ROSEAU         FAIR      57  46  67 NW12      30.17F
HALLOCK        FAIR      63  45  51 NW15G22   30.19S
THF RVR FALLS  CLOUDY    61  42  49 NW15      30.19F
HALSTAD          N/A     65  43  44 N14         N/A
FOSSTON        PTSUNNY   63  43  48 NW13G22   30.18F
BAUDETTE       PTSUNNY   58  45  62 NW12      30.16R
WASKISH        CLOUDY    55  48  76 NW8       30.16F
CROOKSTON      FAIR      64  41  42 N14G25    30.19F
$$
  *****  WEATHER ACROSS CENTRAL AND WEST MINNESOTA  *****

CITY           SKY/WX    TMP DP  RH WIND       PRES   REMARKS
BEMIDJI        FAIR      61  44  53 NW16      30.15F
PARK RAPIDS    PTSUNNY   63  39  41 NW18      30.16F
WADENA         FAIR      61  43  51 NW10      30.17F
DETROIT LAKES  FAIR      63  41  45 NW15G21   30.19F
MOORHEAD       FAIR      66  39  37 N15G21    30.19F
FERGUS FALLS   FAIR      64  43  45 N15       30.16F
ELBOW LAKE     FAIR      64  44  49 W13G18    30.19F
MORRIS MN      FAIR      68  43  40 NW12G20   30.19F
STAPLES        PTSUNNY   64  37  36 NW21G26   30.16F
WHEATON        PTSUNNY   64  43  45 NW10      30.22S
$$
  *****  WEATHER ELSEWHERE ACROSS MINNESOTA  *****

CITY           SKY/WX    TMP DP  RH WIND       PRES   REMARKS
DULUTH         PTSUNNY   58  45  62 N15G24    30.07S
INTRNTL FALLS  PTSUNNY   57  42  57 N7        30.12S
ELY            RAIN      48  48 100 NW8       30.08S
CLOQUET        FAIR      61  43  51 NW14G24   30.08F
BRAINERD       CLOUDY    61  39  44 W14G26    30.15F
HIBBING        PTSUNNY   58  43  57 N16G29    30.09F
ALEXANDRIA     PTSUNNY   64  42  44 NW16G24   30.20F
SAINT CLOUD    PTSUNNY   66  42  41 NW18      30.15S
MINNEAPOLIS    PTSUNNY   68  43  40 NW17G24   30.14S
$$

  *****  WEATHER ACROSS SOUTH DAKOTA  *****

CITY           SKY/WX    TMP DP  RH WIND       PRES   REMARKS
SIOUX FALLS    FAIR      70  47  43 N18G24    30.25F
BROOKINGS      FAIR      67  44  43 NW17      30.25
WATERTOWN      CLOUDY    63  42  46 NW14      30.24F
HURON          FAIR      72  42  34 NW10      30.24F
SISSETON         N/A     70  42  36 NW24      30.21S
ABERDEEN       PTSUNNY   64  43  46 N12       30.26F
MITCHELL       FAIR      73  39  29 N9        30.26F
PIERRE         FAIR      74  34  23 MISG      30.21F
MOBRIDGE       FAIR      77  34  21 N10       30.18F
RAPID CITY     FAIR      75  36  24 VRB6      30.25F
$$

  *****  SOME WEATHER IN NEARBY STATES *****

CITY           SKY/WX    TMP DP  RH WIND       PRES   REMARKS
GLASGOW MT     FAIR      77  36  22 NW13G18   30.23F
GREAT FALLS MT FAIR      78  42  27 E8        30.24F
CHEYENNE WY    FAIR      66  47  50 S7G16     30.37F
SCOTTSBLUFF NE FAIR      77  43  29 SE8G20    30.29F
OMAHA NE       FAIR      75  42  30 N12       30.26F
DES MOINES IA  FAIR      73  43  33 NW16G23   30.22F
DAVENPORT IA   CLOUDY    67  49  52 NW18      30.17F
CHICAGO IL     PTSUNNY   70  45  40 W22       30.09R
EAU CLAIRE WI  CLOUDY    61  52  72 NW15      30.08S
LA CROSSE WI   CLOUDY    67  56  67 W14       30.11S
$$

  *****  SOME NATIONAL WEATHER *****

CITY           SKY/WX    TMP DP  RH WIND       PRES   REMARKS
LA GUARDIA NY  PTSUNNY   76  60  57 N3        29.94R
RALEIGH NC     FAIR      83  62  49 VRB6      30.06F
ATLANTA GA     PTSUNNY   80  62  54 NW14      30.13F
NEW ORLEANS LA LGT RAIN  84  73  69 NE7       30.10F HX  90
OKLAHOMA CITY  PTSUNNY   85  46  25 SE10G18   30.22F
ALBUQUERQUE NM PTSUNNY   87  48  25 VRB3      30.23F
SALT LAKE CITY FAIR      90  40  17 E6        30.16F
LOS ANGELES CA FAIR      76  61  59 W14       29.89F
BOISE ID       FAIR      91  41  17 SE12      30.09F
SEATTLE WA     PTSUNNY   89  55  31 N7        29.90F
$$

*** WEATHER ACROSS MANITOBA...SASKATCHEWAN AND ONTARIO ***
                ***ONTARIO***

CITY           SKY/WX    TMP DP  RH WIND       PRES   REMARKS
GERALDTON      PTSUNNY   61  36  39 N10       30.03F
THUNDER BAY    LGT RAIN  55  54  94 NW5       30.03S
SIOUX LOOKOUT  CLOUDY    55  45  67 N5        30.09F
TORONTO        MOSUNNY   68  48  49 NW18G31   29.93R
BIG TROUT LK   CLOUDY    63  34  34 NW5       30.01F
PICKLE LAKE    PTSUNNY   61  39  44 W9        30.05S
DRYDEN         CLOUDY    57  41  54 N6        30.11S
KENORA         LGT RAIN  55  45  67 N14       30.15R
$$
                *** MANITOBA***

CITY           SKY/WX    TMP DP  RH WIND       PRES   REMARKS
BRANDON        PTSUNNY   64  41  42 N7        30.24S
DAUPHIN        MOSUNNY   64  41  42 N5        30.23F
ISLAND LAKE    PTSUNNY   64  43  45 W12G22    30.07F
PILOT MOUND      N/A     61  41  48 N8          N/A
THE PAS        MOSUNNY   68  39  34 NW13      30.20F
THOMPSON       PTSUNNY   63  39  42 N15G23    30.10S
WINNIPEG       PTSUNNY   57  48  72 NW16      30.20S
LYNN LAKE      MOSUNNY   66  39  37 N12G23    30.16F
CHURCHILL      PTSUNNY   50  39  66 N12       30.07S
GILLAM         PTSUNNY   57  48  72 N5        30.05R
$$
                ***SASKATCHEWAN***

CITY           SKY/WX    TMP DP  RH WIND       PRES   REMARKS
ESTEVAN        MOSUNNY   68  43  40 N10       30.26S
KINDERSLEY     MOSUNNY   68  43  40 E2        30.27F
LLOYDMINSTER   MOSUNNY   68  43  40 W6        30.26F
PRINCE ALBERT  MOSUNNY   68  37  32 N5        30.29S
REGINA         PTSUNNY   68  43  40 N8        30.27S
YORKTON        PTSUNNY   63  36  36 N8        30.27S


USA.gov is the U.S. government's official web portal to all federal, state and local government web resources and services.